Time,TemperatureF,DewpointF,PressureIn,WindDirection,WindDirectionDegrees,WindSpeedMPH,WindSpeedGustMPH,Humidity,HourlyPrecipIn,Conditions,Clouds,dailyrainin,SolarRadiationWatts/m^2,SoftwareType,DateUTC
2014-01-29 00:02:00,59.0,27.0,-100.00,North,356,3.0,7.0,29,0.00,,,0.00,0.000000,,2014-01-29 08:02:00,
2014-01-29 00:12:00,59.0,27.0,-100.00,North,356,3.0,7.0,29,0.00,,,0.00,0.000000,,2014-01-29 08:12:00,
2014-01-29 00:22:00,59.0,27.0,-100.00,North,356,3.0,7.0,29,0.00,,,0.00,0.000000,,2014-01-29 08:22:00,
2014-01-29 00:52:00,59.0,25.0,-100.00,North,4,7.0,10.0,27,0.00,,,0.00,0.000000,,2014-01-29 08:52:00,
2014-01-29 01:02:00,59.0,25.0,-100.00,North,4,7.0,10.0,27,0.00,,,0.00,0.000000,,2014-01-29 09:02:00,
2014-01-29 01:11:00,59.0,25.0,-100.00,North,4,7.0,10.0,27,0.00,,,0.00,0.000000,,2014-01-29 09:11:00,
2014-01-29 01:21:00,59.0,25.0,-100.00,North,4,7.0,10.0,27,0.00,,,0.00,0.000000,,2014-01-29 09:21:00,
2014-01-29 01:53:00,57.0,23.0,-100.00,NE,36,3.0,12.0,27,0.00,,,0.00,0.000000,,2014-01-29 09:53:00,
2014-01-29 02:03:00,57.0,23.0,-100.00,NE,36,3.0,12.0,27,0.00,,,0.00,0.000000,,2014-01-29 10:03:00,
2014-01-29 02:12:00,57.0,23.0,-100.00,NE,36,3.0,12.0,27,0.00,,,0.00,0.000000,,2014-01-29 10:12:00,
2014-01-29 02:22:00,57.0,23.0,-100.00,NE,36,3.0,12.0,27,0.00,,,0.00,0.000000,,2014-01-29 10:22:00,
2014-01-29 02:52:00,56.0,26.0,-100.00,North,356,1.0,3.0,31,0.00,,,0.00,0.000000,,2014-01-29 10:52:00,
2014-01-29 03:02:00,56.0,26.0,-100.00,North,356,1.0,3.0,31,0.00,,,0.00,0.000000,,2014-01-29 11:02:00,
2014-01-29 03:12:00,56.0,26.0,-100.00,North,356,1.0,3.0,31,0.00,,,0.00,0.000000,,2014-01-29 11:12:00,
2014-01-29 03:22:00,56.0,26.0,-100.00,North,356,1.0,3.0,31,0.00,,,0.00,0.000000,,2014-01-29 11:22:00,
2014-01-29 03:53:00,57.0,27.0,-100.00,NNW,332,3.0,6.0,32,0.00,,,0.00,0.000000,,2014-01-29 11:53:00,
2014-01-29 04:02:00,57.0,27.0,-100.00,NNW,332,3.0,6.0,32,0.00,,,0.00,0.000000,,2014-01-29 12:02:00,
2014-01-29 04:12:00,57.0,27.0,-100.00,NNW,332,3.0,6.0,32,0.00,,,0.00,0.000000,,2014-01-29 12:12:00,
2014-01-29 04:22:00,57.0,27.0,-100.00,NNW,332,3.0,6.0,32,0.00,,,0.00,0.000000,,2014-01-29 12:22:00,
2014-01-29 04:53:00,54.0,28.0,-100.00,NNE,23,4.0,7.0,36,0.00,,,0.00,0.000000,,2014-01-29 12:53:00,
2014-01-29 05:02:00,54.0,28.0,-100.00,NNE,23,4.0,7.0,36,0.00,,,0.00,0.000000,,2014-01-29 13:02:00,
2014-01-29 05:12:00,54.0,28.0,-100.00,NNE,23,4.0,7.0,36,0.00,,,0.00,0.000000,,2014-01-29 13:12:00,
2014-01-29 05:21:00,54.0,28.0,-100.00,NNE,23,4.0,7.0,36,0.00,,,0.00,0.000000,,2014-01-29 13:21:00,
2014-01-29 05:52:00,54.0,28.0,-100.00,NNE,15,2.0,6.0,37,0.00,,,0.00,0.000000,,2014-01-29 13:52:00,
2014-01-29 06:02:00,54.0,28.0,-100.00,NNE,15,2.0,6.0,37,0.00,,,0.00,0.000000,,2014-01-29 14:02:00,
2014-01-29 06:12:00,54.0,28.0,-100.00,NNE,15,2.0,6.0,37,0.00,,,0.00,0.000000,,2014-01-29 14:12:00,
2014-01-29 06:21:00,54.0,28.0,-100.00,NNE,15,2.0,6.0,37,0.00,,,0.00,0.000000,,2014-01-29 14:21:00,
2014-01-29 06:52:00,53.0,27.0,-100.00,NNE,15,1.0,3.0,37,0.00,,,0.00,0.000000,,2014-01-29 14:52:00,
2014-01-29 07:02:00,53.0,27.0,-100.00,NNE,15,1.0,3.0,37,0.00,,,0.00,0.000000,,2014-01-29 15:02:00,
2014-01-29 07:11:00,53.0,27.0,-100.00,NNE,15,1.0,3.0,37,0.00,,,0.00,0.000000,,2014-01-29 15:11:00,
2014-01-29 07:21:00,53.0,27.0,-100.00,NNE,15,1.0,3.0,37,0.00,,,0.00,0.000000,,2014-01-29 15:21:00,
2014-01-29 07:53:00,56.0,32.0,-100.00,North,-999,0.0,4.0,40,0.00,,,0.00,59.000000,,2014-01-29 15:53:00,
2014-01-29 08:03:00,56.0,32.0,-100.00,North,-999,0.0,4.0,40,0.00,,,0.00,59.000000,,2014-01-29 16:03:00,
2014-01-29 08:13:00,56.0,32.0,-100.00,North,-999,0.0,4.0,40,0.00,,,0.00,59.000000,,2014-01-29 16:13:00,
2014-01-29 08:23:00,56.0,32.0,-100.00,North,-999,0.0,4.0,40,0.00,,,0.00,59.000000,,2014-01-29 16:23:00,
2014-01-29 08:53:00,58.0,31.0,-100.00,NE,38,2.0,4.0,36,0.00,,,0.00,206.000000,,2014-01-29 16:53:00,
2014-01-29 09:02:00,58.0,31.0,-100.00,NE,38,2.0,4.0,36,0.00,,,0.00,206.000000,,2014-01-29 17:02:00,
2014-01-29 09:12:00,58.0,31.0,-100.00,NE,38,2.0,4.0,36,0.00,,,0.00,206.000000,,2014-01-29 17:12:00,
2014-01-29 09:22:00,58.0,31.0,-100.00,NE,38,2.0,4.0,36,0.00,,,0.00,206.000000,,2014-01-29 17:22:00,
2014-01-29 09:52:00,65.0,28.0,-100.00,NNE,26,3.0,5.0,25,0.00,,,0.00,425.000000,,2014-01-29 17:52:00,
2014-01-29 10:01:00,65.0,28.0,-100.00,NNE,26,3.0,5.0,25,0.00,,,0.00,425.000000,,2014-01-29 18:01:00,
2014-01-29 10:11:00,65.0,28.0,-100.00,NNE,26,3.0,5.0,25,0.00,,,0.00,425.000000,,2014-01-29 18:11:00,
2014-01-29 10:21:00,65.0,28.0,-100.00,NNE,26,3.0,5.0,25,0.00,,,0.00,425.000000,,2014-01-29 18:21:00,
2014-01-29 10:53:00,71.0,25.0,-100.00,NNW,329,3.0,7.0,18,0.00,,,0.00,593.000000,,2014-01-29 18:53:00,
2014-01-29 11:01:00,71.0,25.0,-100.00,NNW,329,3.0,7.0,18,0.00,,,0.00,593.000000,,2014-01-29 19:01:00,
2014-01-29 11:11:00,71.0,25.0,-100.00,NNW,329,3.0,7.0,18,0.00,,,0.00,593.000000,,2014-01-29 19:11:00,
2014-01-29 11:21:00,71.0,25.0,-100.00,NNW,329,3.0,7.0,18,0.00,,,0.00,593.000000,,2014-01-29 19:21:00,
2014-01-29 11:52:00,75.0,24.0,-100.00,NE,40,6.0,10.0,15,0.00,,,0.00,750.000000,,2014-01-29 19:52:00,
2014-01-29 12:01:00,75.0,24.0,-100.00,NE,40,6.0,10.0,15,0.00,,,0.00,750.000000,,2014-01-29 20:01:00,
2014-01-29 12:11:00,75.0,24.0,-100.00,NE,40,6.0,10.0,15,0.00,,,0.00,750.000000,,2014-01-29 20:11:00,
2014-01-29 12:21:00,75.0,24.0,-100.00,NE,40,6.0,10.0,15,0.00,,,0.00,750.000000,,2014-01-29 20:21:00,
2014-01-29 12:53:00,80.0,23.0,-100.00,NE,54,3.0,11.0,12,0.00,,,0.00,781.000000,,2014-01-29 20:53:00,
2014-01-29 13:02:00,80.0,23.0,-100.00,NE,54,3.0,11.0,12,0.00,,,0.00,781.000000,,2014-01-29 21:02:00,
2014-01-29 13:11:00,80.0,23.0,-100.00,NE,54,3.0,11.0,12,0.00,,,0.00,781.000000,,2014-01-29 21:11:00,
2014-01-29 13:22:00,80.0,23.0,-100.00,NE,54,3.0,11.0,12,0.00,,,0.00,781.000000,,2014-01-29 21:22:00,
2014-01-29 13:53:00,79.0,26.0,-100.00,South,187,6.0,11.0,14,0.00,,,0.00,689.000000,,2014-01-29 21:53:00,
2014-01-29 14:03:00,79.0,26.0,-100.00,South,187,6.0,11.0,14,0.00,,,0.00,689.000000,,2014-01-29 22:03:00,
2014-01-29 14:12:00,79.0,26.0,-100.00,South,187,6.0,11.0,14,0.00,,,0.00,689.000000,,2014-01-29 22:12:00,
2014-01-29 14:22:00,79.0,26.0,-100.00,South,187,6.0,11.0,14,0.00,,,0.00,689.000000,,2014-01-29 22:22:00,
2014-01-29 14:53:00,81.0,24.0,-100.00,South,185,5.0,10.0,12,0.00,,,0.00,581.000000,,2014-01-29 22:53:00,
2014-01-29 15:02:00,81.0,24.0,-100.00,South,185,5.0,10.0,12,0.00,,,0.00,581.000000,,2014-01-29 23:02:00,
2014-01-29 15:12:00,81.0,24.0,-100.00,South,185,5.0,10.0,12,0.00,,,0.00,581.000000,,2014-01-29 23:12:00,
2014-01-29 15:22:00,81.0,24.0,-100.00,South,185,5.0,10.0,12,0.00,,,0.00,581.000000,,2014-01-29 23:22:00,
2014-01-29 15:52:00,81.0,22.0,-100.00,South,177,5.0,8.0,11,0.00,,,0.00,438.000000,,2014-01-29 23:52:00,
2014-01-29 16:02:00,81.0,22.0,-100.00,South,177,5.0,8.0,11,0.00,,,0.00,438.000000,,2014-01-30 00:02:00,
2014-01-29 16:12:00,81.0,22.0,-100.00,South,177,5.0,8.0,11,0.00,,,0.00,438.000000,,2014-01-30 00:12:00,
2014-01-29 16:21:00,81.0,22.0,-100.00,South,177,5.0,8.0,11,0.00,,,0.00,438.000000,,2014-01-30 00:21:00,
2014-01-29 16:52:00,79.0,22.0,-100.00,SSE,163,5.0,9.0,12,0.00,,,0.00,240.000000,,2014-01-30 00:52:00,
2014-01-29 17:02:00,79.0,22.0,-100.00,SSE,163,5.0,9.0,12,0.00,,,0.00,240.000000,,2014-01-30 01:02:00,
2014-01-29 17:11:00,79.0,22.0,-100.00,SSE,163,5.0,9.0,12,0.00,,,0.00,240.000000,,2014-01-30 01:11:00,
2014-01-29 17:22:00,79.0,22.0,-100.00,SSE,163,5.0,9.0,12,0.00,,,0.00,240.000000,,2014-01-30 01:22:00,
2014-01-29 17:52:00,74.0,26.0,-100.00,South,169,5.0,9.0,17,0.00,,,0.00,42.000000,,2014-01-30 01:52:00,
2014-01-29 18:01:00,74.0,26.0,-100.00,South,169,5.0,9.0,17,0.00,,,0.00,42.000000,,2014-01-30 02:01:00,
2014-01-29 18:11:00,74.0,26.0,-100.00,South,169,5.0,9.0,17,0.00,,,0.00,42.000000,,2014-01-30 02:11:00,
2014-01-29 18:21:00,74.0,26.0,-100.00,South,169,5.0,9.0,17,0.00,,,0.00,42.000000,,2014-01-30 02:21:00,
2014-01-29 19:11:00,71.0,28.0,-100.00,South,169,4.0,7.0,20,0.00,,,0.00,0.000000,,2014-01-30 03:11:00,
2014-01-29 19:21:00,71.0,28.0,-100.00,South,169,4.0,7.0,20,0.00,,,0.00,0.000000,,2014-01-30 03:21:00,
2014-01-29 19:53:00,70.0,26.0,-100.00,SSE,147,3.0,6.0,19,0.00,,,0.00,0.000000,,2014-01-30 03:53:00,
2014-01-29 20:03:00,70.0,26.0,-100.00,SSE,147,3.0,6.0,19,0.00,,,0.00,0.000000,,2014-01-30 04:03:00,
2014-01-29 20:12:00,70.0,26.0,-100.00,SSE,147,3.0,6.0,19,0.00,,,0.00,0.000000,,2014-01-30 04:12:00,
2014-01-29 20:23:00,70.0,26.0,-100.00,SSE,147,3.0,6.0,19,0.00,,,0.00,0.000000,,2014-01-30 04:23:00,
2014-01-29 20:53:00,67.0,29.0,-100.00,ESE,119,1.0,6.0,24,-99.99,,,0.00,0.000000,,2014-01-30 04:53:00,
2014-01-29 21:02:00,67.0,29.0,-100.00,ESE,119,1.0,6.0,24,-99.99,,,0.00,0.000000,,2014-01-30 05:02:00,
2014-01-29 21:12:00,67.0,29.0,-100.00,ESE,119,1.0,6.0,24,-99.99,,,0.00,0.000000,,2014-01-30 05:12:00,
2014-01-29 21:22:00,67.0,29.0,-100.00,ESE,119,1.0,6.0,24,-99.99,,,0.00,0.000000,,2014-01-30 05:22:00,
2014-01-29 21:53:00,61.0,36.0,-100.00,North,-999,0.0,3.0,40,0.00,,,0.00,0.000000,,2014-01-30 05:53:00,
2014-01-29 22:02:00,61.0,36.0,-100.00,North,-999,0.0,3.0,40,0.00,,,0.00,0.000000,,2014-01-30 06:02:00,
2014-01-29 22:11:00,61.0,36.0,-100.00,North,-999,0.0,3.0,40,0.00,,,0.00,0.000000,,2014-01-30 06:11:00,
2014-01-29 22:22:00,61.0,36.0,-100.00,North,-999,0.0,3.0,40,0.00,,,0.00,0.000000,,2014-01-30 06:22:00,
2014-01-29 22:52:00,60.0,34.0,-100.00,West,273,2.0,3.0,38,0.00,,,0.00,0.000000,,2014-01-30 06:52:00,
2014-01-29 23:02:00,60.0,34.0,-100.00,West,273,2.0,3.0,38,0.00,,,0.00,0.000000,,2014-01-30 07:02:00,
2014-01-29 23:11:00,60.0,34.0,-100.00,West,273,2.0,3.0,38,0.00,,,0.00,0.000000,,2014-01-30 07:11:00,
2014-01-29 23:21:00,60.0,34.0,-100.00,West,273,2.0,3.0,38,0.00,,,0.00,0.000000,,2014-01-30 07:21:00,
2014-01-29 23:52:00,59.0,28.0,-100.00,WNW,299,2.0,5.0,31,0.00,,,0.00,0.000000,,2014-01-30 07:52:00,